CW3642 Weather Reports


Display with metric or nautical units.
time (UTC)temp
F
wind
direction
speed
MPH
gust
MPH
rain 1hr
in
rain 24hr
in
rain mn
in
humidity
%
barometer
mb
20260902035756 73 205 0.0 0.0 0.00 0.00 0.00 93 1011.7
20260902035256 73 205 0.0 0.0 0.00 0.00 0.00 93 1011.6
20260902034756 73 189 0.0 0.0 0.00 0.00 0.00 93 1011.6
20260902034256 73 207 0.0 0.0 0.00 0.00 0.00 93 1011.7
20260902033256 72 200 0.0 0.0 0.00 0.00 0.00 93 1011.7
20260902032756 72 182 0.0 0.0 0.00 0.00 0.00 93 1011.7
20260902032256 72 189 0.0 0.0 0.00 0.00 0.00 93 1011.8
20260902031756 71 241 0.0 0.0 0.00 0.00 0.00 94 1011.8
20260902030756 71 223 0.0 0.0 0.00 0.00 0.00 94 1011.9
20260902030256 71 224 0.0 0.0 0.00 0.00 0.00 94 1011.9
20260902025756 71 171 0.0 0.0 0.00 0.00 0.00 93 1012.0
20260902025256 71 221 0.0 0.0 0.00 0.00 0.00 93 1011.8
20260902024756 71 221 0.0 0.0 0.00 0.00 0.00 93 1011.7
20260902024256 71 221 0.0 0.0 0.00 0.00 0.00 93 1011.8
20260902023756 71 221 0.0 0.0 0.00 0.00 0.00 93 1011.8
20260902023256 71 221 0.0 0.0 0.00 0.00 0.00 93 1011.8
20260902022756 71 221 0.0 0.0 0.00 0.00 0.00 92 1011.7
20260902022256 71 221 0.0 0.0 0.00 0.00 0.00 92 1011.7
20260902021756 72 221 0.0 0.0 0.00 0.00 0.00 92 1011.7
20260902021256 72 221 0.0 0.0 0.00 0.00 0.00 92 1011.7
20260902020756 72 221 0.0 0.0 0.00 0.00 0.00 92 1011.8
20260902015800 72 221 0.0 0.0 0.00 0.00 0.00 91 1011.8
20260902015300 73 221 0.0 0.0 0.00 0.00 0.00 91 1011.6
20260902014800 73 221 0.0 0.0 0.00 0.00 0.00 90 1011.6
20260902014300 73 221 0.0 0.0 0.00 0.00 0.00 90 1011.5
20260902013800 73 221 0.0 0.0 0.00 0.00 0.00 90 1011.5
20260902012800 74 221 0.0 0.0 0.00 0.00 0.00 90 1011.6
20260902012300 74 221 0.0 0.0 0.00 0.00 0.00 89 1011.6
20260902011800 74 221 0.0 0.0 0.00 0.00 0.00 89 1011.6
20260902011300 75 221 0.0 0.0 0.00 0.00 0.00 88 1011.8
20260902010300 75 221 0.0 0.0 0.00 0.00 0.00 88 1011.6
20260902005300 76 221 0.0 0.0 0.00 0.00 0.00 86 1011.5
20260902004300 77 221 0.0 0.0 0.00 0.00 0.00 85 1011.5
20260902003800 77 221 0.0 0.0 0.00 0.00 0.00 84 1011.6
20260902003300 77 221 0.0 0.0 0.00 0.00 0.00 84 1011.5
20260902002800 78 221 0.0 0.0 0.00 0.00 0.00 84 1011.6
20260902002300 78 221 0.0 0.0 0.00 0.00 0.00 83 1011.5
20260902001800 79 221 0.0 0.0 0.00 0.00 0.00 82 1011.6
20260902001300 79 221 0.0 0.0 0.00 0.00 0.00 82 1011.6
20260902000800 79 221 0.0 0.0 0.00 0.00 0.00 81 1011.6
20260902000300 80 221 0.0 0.0 0.00 0.00 0.00 80 1011.6
20260901235800 80 221 0.0 0.0 0.00 0.00 0.00 79 1011.6
20260901235300 81 221 0.0 0.0 0.00 0.00 0.00 79 1011.4
20260901234800 81 221 0.0 0.0 0.00 0.00 0.00 78 1011.3
20260901234300 81 221 0.0 0.0 0.00 0.00 0.00 77 1011.4
20260901233800 82 221 0.0 0.0 0.00 0.00 0.00 76 1011.4
20260901233300 82 221 0.0 0.0 0.00 0.00 0.00 75 1011.3
20260901232300 82 243 0.0 0.0 0.00 0.00 0.00 74 1011.3
20260901231800 83 223 0.0 0.0 0.00 0.00 0.00 73 1011.5
20260901231300 83 218 0.0 0.0 0.00 0.00 0.00 73 1011.6
20260901230300 83 233 0.0 0.0 0.00 0.00 0.00 72 1011.6
20260901225800 84 215 0.0 0.0 0.00 0.00 0.00 72 1011.6
20260901224800 84 226 0.0 0.0 0.00 0.00 0.00 71 1011.7
20260901224300 84 234 0.0 0.0 0.00 0.00 0.00 71 1011.7
20260901223800 85 225 0.0 0.0 0.00 0.00 0.00 70 1011.8
20260901223300 85 203 0.0 0.0 0.00 0.00 0.00 69 1011.8
20260901222800 86 232 0.0 0.0 0.00 0.00 0.00 69 1011.8
20260901222300 86 234 0.0 0.0 0.00 0.00 0.00 69 1011.8
20260901220800 88 263 0.0 0.0 0.00 0.00 0.00 65 1011.9
20260901214748 90 243 0.0 0.0 0.00 0.00 0.00 61 1011.9
20260901214248 90 263 0.0 0.0 0.00 0.00 0.00 62 1011.9
20260901213748 90 220 0.0 0.0 0.00 0.00 0.00 61 1012.0
20260901213248 90 245 0.0 0.0 0.00 0.00 0.00 61 1012.0
20260901212748 90 223 0.0 0.0 0.00 0.00 0.00 60 1012.1
20260901212248 90 230 0.0 0.0 0.00 0.00 0.00 61 1012.0
20260901211748 90 228 0.0 0.0 0.00 0.00 0.00 60 1012.0
20260901211248 90 238 0.0 0.0 0.00 0.00 0.00 60 1012.1
20260901210749 90 219 0.0 0.0 0.00 0.00 0.00 59 1012.1
20260901210248 90 234 0.0 0.0 0.00 0.00 0.00 59 1012.1
20260901205748 90 277 0.0 0.0 0.00 0.00 0.00 59 1012.1
20260901205249 90 269 0.0 0.0 0.00 0.00 0.00 57 1012.2
20260901204249 90 231 0.0 0.0 0.00 0.00 0.00 56 1012.2
20260901203748 90 223 0.0 0.0 0.00 0.00 0.00 56 1012.3
20260901203248 90 246 0.0 0.0 0.00 0.00 0.00 57 1012.2
20260901202749 90 271 0.0 0.0 0.00 0.00 0.00 57 1012.2
20260901202248 90 225 0.0 0.0 0.00 0.00 0.00 56 1012.3
20260901201748 89 183 0.0 0.0 0.00 0.00 0.00 55 1012.4
20260901201248 89 223 0.0 0.0 0.00 0.00 0.00 54 1012.5
20260901200248 89 242 0.0 0.0 0.00 0.00 0.00 57 1012.5
20260901195748 88 244 0.0 0.0 0.00 0.00 0.00 56 1012.5
20260901195248 88 289 0.0 0.0 0.00 0.00 0.00 57 1012.5
20260901194248 88 154 0.0 0.0 0.00 0.00 0.00 56 1012.8
20260901193748 88 251 0.0 0.0 0.00 0.00 0.00 57 1012.8
20260901193249 89 286 0.0 0.0 0.00 0.00 0.00 61 1012.9
20260901192748 88 309 0.0 0.0 0.00 0.00 0.00 58 1013.0
20260901192248 88 233 0.0 0.0 0.00 0.00 0.00 58 1013.0
20260901191748 87 252 0.0 0.0 0.00 0.00 0.00 61 1013.0
20260901190748 88 34 0.0 0.0 0.00 0.00 0.00 59 1013.1
20260901190248 88 238 0.0 0.0 0.00 0.00 0.00 59 1013.2
20260901185749 88 286 0.0 0.0 0.00 0.00 0.00 59 1013.3
20260901185248 87 242 0.0 0.0 0.00 0.00 0.00 65 1013.3
20260901184748 87 202 0.0 0.0 0.00 0.00 0.00 65 1013.4
20260901184248 87 265 0.0 0.0 0.00 0.00 0.00 62 1013.5
20260901183748 87 196 0.0 0.0 0.00 0.00 0.00 66 1013.5
20260901183248 87 173 0.0 0.0 0.00 0.00 0.00 66 1013.5
20260901182748 87 221 0.0 0.0 0.00 0.00 0.00 66 1013.6
20260901181748 87 193 0.0 0.0 0.00 0.00 0.00 67 1013.7
20260901175759 87 216 0.0 0.0 0.00 0.00 0.00 66 1013.7
20260901175259 87 222 0.0 0.0 0.00 0.00 0.00 67 1013.9
20260901174759 87 244 0.0 0.0 0.00 0.00 0.00 66 1013.9
20260901174259 87 211 0.0 0.0 0.00 0.00 0.00 66 1013.9
20260901173759 86 187 0.0 0.0 0.00 0.00 0.00 66 1013.8
20260901172245 86 299 0.0 0.0 0.00 0.00 0.00 71 1013.9
20260901171745 85 216 0.0 0.0 0.00 0.00 0.00 72 1013.9
20260901171245 84 82 0.0 0.0 0.00 0.00 0.00 70 1013.7
20260901170745 84 181 0.0 0.0 0.00 0.00 0.00 70 1013.8
20260901170245 84 255 0.0 0.0 0.00 0.00 0.00 73 1013.9
20260901165245 84 227 0.0 0.0 0.00 0.00 0.00 74 1013.9
20260901164745 84 206 0.0 0.0 0.00 0.00 0.00 73 1013.8
20260901163745 84 238 0.0 0.0 0.00 0.00 0.00 75 1013.8
20260901163245 83 150 0.0 0.0 0.00 0.00 0.00 76 1013.9
20260901162745 82 129 0.0 0.0 0.00 0.00 0.00 76 1013.8
20260901161745 81 211 0.0 0.0 0.00 0.00 0.00 78 1013.8
20260901160744 81 194 0.0 0.0 0.00 0.00 0.00 79 1013.9
20260901155745 81 227 0.0 0.0 0.00 0.00 0.00 81 1014.0
20260901155245 80 97 0.0 0.0 0.00 0.00 0.00 81 1014.0
20260901154744 80 117 0.0 0.0 0.00 0.00 0.00 82 1014.0
20260901154244 79 100 0.0 0.0 0.00 0.00 0.00 84 1014.0
20260901153744 79 120 0.0 0.0 0.00 0.00 0.00 85 1014.0
20260901153245 78 219 0.0 0.0 0.00 0.00 0.00 86 1013.9
20260901152245 77 190 0.0 0.0 0.00 0.01 0.00 88 1014.0
20260901151745 76 69 0.0 0.0 0.00 0.01 0.00 89 1014.1
20260901151245 76 190 0.0 0.0 0.00 0.01 0.00 90 1014.0
20260901150745 76 190 0.0 0.0 0.00 0.01 0.00 89 1014.0
20260901150244 76 65 0.0 0.0 0.00 0.01 0.00 90 1014.1
20260901145245 76 70 0.0 0.0 0.00 0.01 0.00 90 1014.1
20260901144745 76 53 0.0 0.0 0.00 0.01 0.00 90 1014.2
20260901144245 76 28 0.0 0.0 0.00 0.02 0.00 90 1014.1
20260901143744 76 22 0.0 0.0 0.00 0.02 0.00 90 1014.1
20260901142744 75 46 0.0 0.0 0.00 0.02 0.00 91 1013.9
20260901142244 75 69 0.0 0.0 0.00 0.02 0.00 91 1013.8
20260901141745 75 65 0.0 0.0 0.00 0.02 0.00 92 1013.8
20260901141244 75 53 0.0 0.0 0.00 0.02 0.00 92 1013.7
20260901140744 74 52 0.0 0.0 0.00 0.02 0.00 94 1013.5
20260901135247 72 53 0.0 0.0 0.00 0.03 0.00 92 1013.4
20260901134747 72 146 0.0 0.0 0.00 0.03 0.00 92 1013.4
20260901134247 71 239 0.0 0.0 0.00 0.04 0.00 92 1013.4
20260901133747 71 116 0.0 0.0 0.00 0.04 0.00 92 1013.4
20260901133247 70 244 0.0 0.0 0.00 0.04 0.00 92 1013.5
20260901132246 70 244 0.0 0.0 0.00 0.04 0.00 92 1013.7
20260901131746 70 244 0.0 0.0 0.00 0.04 0.00 92 1013.8
20260901130747 69 242 0.0 0.0 0.00 0.05 0.00 93 1013.7
20260901130247 69 242 0.0 0.0 0.00 0.05 0.00 93 1013.6
20260901125247 68 246 0.0 0.0 0.00 0.07 0.00 93 1013.4
20260901124747 67 250 0.0 0.0 0.00 0.08 0.00 93 1013.4
20260901124246 66 250 0.0 0.0 0.00 0.09 0.00 93 1013.5
20260901123747 66 250 0.0 0.0 0.00 0.11 0.00 93 1013.5
20260901122747 65 250 0.0 0.0 0.00 0.14 0.00 93 1013.5
20260901122247 65 250 0.0 0.0 0.00 0.15 0.00 93 1013.5
20260901121747 64 250 0.0 0.0 0.00 0.16 0.00 93 1013.4
20260901121247 64 250 0.0 0.0 0.00 0.17 0.00 93 1013.4
20260901120747 64 250 0.0 0.0 0.00 0.17 0.00 93 1013.3
20260901120247 63 250 0.0 0.0 0.00 0.18 0.00 93 1013.2
20260901115747 63 250 0.0 0.0 0.00 0.18 0.00 94 1013.1
20260901115247 63 250 0.0 0.0 0.00 0.19 0.00 94 1013.1
20260901114747 63 250 0.0 0.0 0.00 0.21 0.00 94 1013.1
20260901114247 63 250 0.0 0.0 0.00 0.21 0.00 94 1013.0
20260901113247 63 250 0.0 0.0 0.00 0.23 0.00 94 1012.8
20260901112746 63 250 0.0 0.0 0.00 0.23 0.00 94 1012.7
20260901112247 63 250 0.0 0.0 0.00 0.23 0.00 94 1012.6
20260901111747 63 250 0.0 0.0 0.00 0.23 0.00 94 1012.6
20260901111247 63 250 0.0 0.0 0.00 0.23 0.00 94 1012.7
20260901110747 63 250 0.0 0.0 0.00 0.23 0.00 94 1012.6
20260901110247 63 250 0.0 0.0 0.00 0.23 0.00 94 1012.5
20260901105747 64 250 0.0 0.0 0.00 0.23 0.00 94 1012.6
20260901105247 64 250 0.0 0.0 0.00 0.23 0.00 94 1012.6
20260901103746 64 250 0.0 0.0 0.00 0.23 0.00 94 1012.4
20260901102746 64 250 0.0 0.0 0.00 0.23 0.00 94 1012.4
20260901102246 64 250 0.0 0.0 0.00 0.23 0.00 94 1012.4
20260901101247 64 250 0.0 0.0 0.00 0.23 0.00 94 1012.3
20260901100747 65 250 0.0 0.0 0.00 0.23 0.00 94 1012.5
20260901095252 65 250 0.0 0.0 0.00 0.23 0.00 94 1012.4
20260901094253 65 250 0.0 0.0 0.00 0.23 0.00 94 1012.4
20260901093753 65 250 0.0 0.0 0.00 0.24 0.00 94 1012.5
20260901093252 65 250 0.0 0.0 0.00 0.24 0.00 94 1012.6
20260901092753 65 250 0.0 0.0 0.00 0.25 0.00 94 1012.6
20260901092253 65 250 0.0 0.0 0.00 0.25 0.00 94 1012.7
20260901091753 65 250 0.0 0.0 0.00 0.26 0.00 94 1012.7
20260901091253 65 250 0.0 0.0 0.00 0.27 0.00 94 1012.6
20260901090753 65 250 0.0 0.0 0.00 0.27 0.00 94 1012.5
20260901090253 65 250 0.0 0.0 0.00 0.28 0.00 94 1012.5
20260901085253 65 250 0.0 0.0 0.00 0.28 0.00 94 1012.3
20260901084753 65 250 0.0 0.0 0.00 0.29 0.00 94 1012.3
20260901084253 65 250 0.0 0.0 0.00 0.29 0.00 94 1012.2
20260901083753 65 250 0.0 0.0 0.00 0.29 0.00 94 1012.3
20260901083252 65 250 0.0 0.0 0.00 0.30 0.00 94 1012.2
20260901082753 65 250 0.0 0.0 0.00 0.31 0.00 94 1012.2
20260901082252 66 250 0.0 0.0 0.00 0.31 0.00 94 1012.2
20260901081252 66 250 0.0 0.0 0.00 0.31 0.00 94 1012.2
20260901080753 66 250 0.0 0.0 0.00 0.32 0.00 94 1012.1
20260901075753 66 250 0.0 0.0 0.00 0.32 0.00 94 1012.1
20260901075253 66 250 0.0 0.0 0.00 0.32 0.00 94 1012.2
20260901074252 66 250 0.0 0.0 0.00 0.32 0.00 94 1012.2
20260901073752 66 250 0.0 0.0 0.00 0.32 0.00 94 1012.1
20260901072753 66 250 0.0 0.0 0.00 0.32 0.00 94 1012.2
20260901072252 67 250 0.0 0.0 0.00 0.32 0.00 94 1012.2
20260901071752 67 250 0.0 0.0 0.00 0.32 0.00 94 1012.2
20260901070252 67 250 0.0 0.0 0.00 0.32 0.00 94 1012.2
20260901065753 67 250 0.0 0.0 0.00 0.32 0.00 94 1012.2
20260901065253 67 250 0.0 0.0 0.00 0.32 0.00 94 1012.1
20260901064753 67 250 0.0 0.0 0.00 0.32 0.00 94 1012.1
20260901064252 67 250 0.0 0.0 0.00 0.32 0.00 94 1012.0
20260901063753 68 250 0.0 0.0 0.00 0.32 0.00 94 1012.1
20260901063253 68 250 0.0 0.0 0.00 0.32 0.00 94 1012.2
20260901062753 68 250 0.0 0.0 0.00 0.32 0.00 94 1012.1
20260901062252 68 250 0.0 0.0 0.00 0.32 0.00 94 1012.2
20260901061752 68 250 0.0 0.0 0.00 0.32 0.00 94 1012.2
20260901061252 68 250 0.0 0.0 0.00 0.32 0.00 94 1012.3
20260901055749 69 250 0.0 0.0 0.00 0.32 0.00 94 1012.3
20260901055250 69 250 0.0 0.0 0.00 0.32 0.00 93 1012.3
20260901054749 69 250 0.0 0.0 0.00 0.32 0.00 93 1012.2
20260901054249 69 250 0.0 0.0 0.00 0.32 0.00 93 1012.2
20260901053750 69 250 0.0 0.0 0.00 0.32 0.00 93 1012.2
20260901053250 70 250 0.0 0.0 0.00 0.32 0.00 93 1012.3
20260901052750 70 250 0.0 0.0 0.00 0.32 0.00 93 1012.3
20260901052250 70 250 0.0 0.0 0.00 0.32 0.00 93 1012.3
20260901051750 70 250 0.0 0.0 0.00 0.32 0.00 93 1012.3
20260901051250 70 250 0.0 0.0 0.00 0.32 0.00 92 1012.2
20260901050750 71 250 0.0 0.0 0.00 0.32 0.00 92 1012.2
20260901050250 71 250 0.0 0.0 0.00 0.32 0.00 92 1012.1
20260901045750 71 250 0.0 0.0 0.00 0.32 0.00 92 1012.0
20260901045250 71 250 0.0 0.0 0.00 0.32 0.00 92 1012.0
20260901044750 71 251 0.0 0.0 0.00 0.32 0.00 92 1012.0
20260901044250 71 265 0.0 0.0 0.00 0.32 0.00 92 1012.1
20260901043750 71 271 0.0 0.0 0.00 0.32 0.00 92 1012.1
20260901043250 72 225 0.0 0.0 0.00 0.32 0.00 92 1012.1
20260901042750 72 220 0.0 0.0 0.00 0.32 0.00 91 1012.0
20260901041750 72 269 0.0 0.0 0.00 0.32 0.00 91 1012.2
20260901041250 72 270 0.0 0.0 0.00 0.32 0.00 91 1012.3
20260901040750 72 238 0.0 0.0 0.00 0.32 0.00 91 1012.3
20260901040250 72 202 0.0 0.0 0.00 0.32 0.00 90 1012.2